This is the latest recevied weather packets stored in our database for station/object IW0REF-9. If no packets are shown the sender has not sent any weather packets the latest 10 day(s).
| Time | Temp. | Humidity | Pressure | Rain* | Wind** | Luminosity | Snow |
|---|---|---|---|---|---|---|---|
| 1777961099 | 15° C | 44% | 999.7 hPa | - | - | - | - |
| 1777960199 | 15° C | 45% | 999.4 hPa | - | - | - | - |
| 1777959299 | 15° C | 44% | 999.1 hPa | - | - | - | - |
| 1777958398 | 15° C | 44% | 999.1 hPa | - | - | - | - |
| 1777957497 | 14.44° C | 44% | 999.3 hPa | - | - | - | - |
| 1777956597 | 14.44° C | 43% | 999.3 hPa | - | - | - | - |
| 1777955696 | 14.44° C | 42% | 999.3 hPa | - | - | - | - |
| 1777954796 | 14.44° C | 42% | 999.6 hPa | - | - | - | - |
| 1777953895 | 14.44° C | 41% | 999.6 hPa | - | - | - | - |
| 1777952995 | 14.44° C | 40% | 999.6 hPa | - | - | - | - |
| 1777952094 | 15° C | 38% | 999.7 hPa | - | - | - | - |
| 1777951193 | 16.67° C | 33% | 999.5 hPa | - | - | - | - |
| 1777950293 | 16.67° C | 33% | 999.6 hPa | - | - | - | - |
| 1777949392 | 16.67° C | 33% | 999.4 hPa | - | - | - | - |
| 1777948492 | 16.67° C | 33% | 999.6 hPa | - | - | - | - |
| 1777947591 | 16.67° C | 33% | 999.6 hPa | - | - | - | - |
| 1777946691 | 17.22° C | 33% | 999.8 hPa | - | - | - | - |
| 1777945790 | 17.78° C | 32% | 999.8 hPa | - | - | - | - |
| 1777944889 | 17.78° C | 32% | 999.9 hPa | - | - | - | - |
| 1777943988 | 17.22° C | 33% | 999.7 hPa | - | - | - | - |
| 1777943088 | 17.22° C | 33% | 999.8 hPa | - | - | - | - |
| 1777942187 | 17.22° C | 33% | 1000 hPa | - | - | - | - |
| 1777941287 | 17.22° C | 33% | 1000.2 hPa | - | - | - | - |
| 1777940386 | 16.67° C | 33% | 1000.6 hPa | - | - | - | - |
| 1777939486 | 17.22° C | 33% | 1000.7 hPa | - | - | - | - |
* Rain since midnight (hover to see other rain measurements)
** Current wind speed in m/s (hover to see current wind gust speed)